I Watch It For The Plot // 10.1 TiB free of 113 TiB
| c | File Name | Size | Date |
|---|---|---|---|
| parent folder | - | - | |
| DIR | 12964_Color Jobs/ | 10259430 | 2026-03-31 21:47:41 |
| DIR | 13561_Kirby & Jigglypuff/ | 3111742 | 2026-03-31 21:48:24 |
| DIR | 14669_Pony Shit/ | 2316032 | 2026-03-31 21:48:22 |
| DIR | 18272_S-U-G-A-R Rush/ | 262889 | 2026-03-31 21:47:42 |
| DIR | 20122_ポケモンのタマゴ/ | 1827466 | 2026-03-31 21:48:21 |
| DIR | 2887_Mario Project Biz/ | 44490481 | 2026-04-01 09:03:28 |
| DIR | 3462_sketches/ | 7071767 | 2026-03-31 21:47:40 |
| DIR | 3463_Sonic Stuff/ | 1356183 | 2026-03-31 21:47:42 |
| DIR | 3464_gifts & prizes/ | 25207762 | 2026-03-31 21:48:23 |
| DIR | 3466_School Days/ | 18413678 | 2026-03-31 21:48:24 |
| DIR | 36168_Little Tails/ | 5862383 | 2026-03-31 21:47:42 |
| DIR | 39615_On the 'Tube/ | 126481588 | 2026-04-01 09:03:29 |
| DIR | 3980_The X-Clusives/ | 4624960 | 2026-03-31 21:47:41 |
| DIR | 4355_Seeds/ | 5899570 | 2026-03-31 21:48:21 |
| DIR | 54863_Type, type, type/ | 789564 | 2026-03-31 21:48:24 |
| DIR | 5943_The Berry Circle/ | 11914167 | 2026-03-31 21:48:25 |
| DIR | 8781_Troll Bait/ | 2939608 | 2026-03-31 21:48:25 |
| - | 1024264.json | 5213 | 2025-05-01 11:31:29 |
| - | 1024264_1409625_ruink_flash.jpg | 93352 | 2025-05-01 11:31:29 |
| - | 107461.json | 6672 | 2025-04-16 09:03:51 |
| - | 107461_139694_ruink_port_prev.jpg | 131526 | 2025-04-16 09:03:51 |
| - | 1152431.json | 5926 | 2025-05-03 12:25:51 |
| - | 1152431_1600888_ruink_wiiu_mariokart8_logo01_e3.png | 60908 | 2025-05-03 12:25:51 |
| - | 1152441.json | 5424 | 2025-05-03 12:26:05 |
| - | 1152441_1600903_ruink_mighty_no._9_logo.png | 163579 | 2025-05-03 12:26:05 |
| - | 1152466.json | 5238 | 2025-05-03 12:26:38 |
| - | 1152466_1600930_ruink_star-fox-zero_logo.jpg | 29567 | 2025-05-03 12:26:38 |
| - | 1152585.json | 5254 | 2025-05-03 12:29:12 |
| - | 1152585_1601074_ruink_smurfsrun.png | 110537 | 2025-05-03 12:29:12 |
| - | 151261.json | 8744 | 2025-04-17 00:46:41 |
| - | 151261_194847_ruink_trainer_card-doc.png | 15433 | 2025-04-17 00:46:41 |
| - | 151261_3908536_ruink_trainer_card.png | 22637 | 2025-04-17 00:46:41 |
| - | 1524109.json | 6243 | 2025-07-26 05:33:54 |
| - | 1524109_2159610_ruink_returnoftherainbow.jpg | 151266 | 2025-07-26 05:33:54 |
| - | 1531723.json | 7580 | 2025-07-26 02:36:21 |
| - | 1531723_2170610_ruink_smurfette-bp.png | 112647 | 2025-07-26 02:36:21 |
| - | 1542755.json | 4553 | 2025-07-25 22:24:08 |
| - | 1542755_2187965_ruink_h3l3vision.png | 161832 | 2025-07-25 22:24:08 |
| - | 160875.json | 4611 | 2025-04-17 04:40:39 |
| - | 160875_207237_ruink_temp_muri.jpg | 24499 | 2025-04-17 04:40:39 |
| - | 1642317.json | 6670 | 2025-07-24 05:51:48 |
| - | 1642317_2343659_ruink_smurfpetal0.png | 82579 | 2025-07-24 05:51:48 |
| - | 1642317_2384122_ruink_petaltest1.png | 70182 | 2025-07-24 05:51:47 |
| - | 1652446.json | 6321 | 2025-07-24 01:55:16 |
| - | 1652446_2359431_ruink_h_potion.png | 30765 | 2025-07-24 01:55:16 |
| - | 1667082.json | 9239 | 2025-07-23 19:42:22 |
| - | 1667082_2381333_ruink_smurfdaisy_sbs.png | 33744 | 2025-07-23 19:42:22 |
| - | 1667082_2381334_ruink_daisytest1.png | 64448 | 2025-07-23 19:42:22 |
| - | 1667082_2836679_ruink_smurfdaisy2.jpg | 117616 | 2025-07-23 19:42:22 |
| - | 1848007.json | 4347 | 2025-07-20 13:07:51 |
| - | 1848007_2654483_ruink_tierlist.jpg | 264066 | 2025-07-20 13:07:51 |
| - | 1906971.json | 5020 | 2025-07-19 08:42:13 |
| - | 1906971_2744206_ruink_smurfmeadow1.png | 136179 | 2025-07-19 08:42:13 |
| - | 1909698.json | 4998 | 2025-07-19 07:57:14 |
| - | 1909698_2748422_ruink_smurfjade1.png | 190809 | 2025-07-19 07:57:14 |
| - | 1909701.json | 5148 | 2025-07-19 07:57:11 |
| - | 1909701_2748428_ruink_smurfclover1.png | 190160 | 2025-07-19 07:57:11 |
| - | 1910878.json | 4991 | 2025-07-19 07:38:45 |
| - | 1910878_2750350_ruink_smurfholly.png | 138133 | 2025-07-19 07:38:45 |
| - | 1930204.json | 9810 | 2025-07-19 02:15:52 |
| - | 1930204_2779563_ruink_cm_dr._sanna_t.png | 108576 | 2025-07-19 02:15:52 |
| - | 1930204_2779564_ruink_dr_sanna_t_color.png | 122381 | 2025-07-19 02:15:52 |
| - | 199641.json | 4459 | 2025-04-17 18:23:21 |
| - | 199641_257008_ruink_gothorita.png | 154987 | 2025-04-17 18:23:21 |
| - | 2003235.json | 5058 | 2025-07-18 04:34:28 |
| - | 2003235_2891513_ruink_smurfhoney.jpg | 278900 | 2025-07-18 04:34:28 |
| - | 2033988.json | 8979 | 2025-07-17 19:34:09 |
| - | 2033988_2938798_ruink_jake.png | 61127 | 2025-07-17 19:34:09 |
| - | 2033988_3068769_ruink_jake-prof.jpg | 59067 | 2025-07-17 19:34:10 |
| - | 2069765.json | 5054 | 2025-07-17 09:08:31 |
| - | 2069765_2993201_ruink_smurfhazel.png | 206534 | 2025-07-17 09:08:31 |
| - | 2258456.json | 6407 | 2025-07-15 03:51:08 |
| - | 2258456_3284652_ruink_sunbathing_smurfdaisy.jpg | 34550 | 2025-07-15 03:51:08 |
| - | 2370129.json | 9499 | 2025-07-14 18:30:41 |
| - | 2370129_3466327_ruink_evey-mg.png | 274554 | 2025-07-14 18:30:41 |
| - | 2370129_3466328_ruink_evey-v.png | 246967 | 2025-07-14 18:30:41 |
| - | 2380386.json | 4548 | 2025-07-13 18:41:31 |
| - | 2380386_3482950_ruink_zcb.jpg | 61137 | 2025-07-13 18:41:31 |
| - | 2404080.json | 7571 | 2025-07-13 12:05:04 |
| - | 2404080_3521097_ruink_b-daydessert1.jpg | 45443 | 2025-07-13 12:05:04 |
| - | 2404080_3521099_ruink_b-daydessert2.jpg | 56369 | 2025-07-13 12:05:04 |
| - | 2411978.json | 6824 | 2025-07-13 10:07:20 |
| - | 2411978_3533317_ruink_rald.png | 3176635 | 2025-07-13 10:07:20 |
| - | 249813.json | 7172 | 2025-04-18 12:11:43 |
| - | 249813_320462_ruink_aooga_journal.txt | 988 | 2025-04-18 12:11:42 |
| - | 249813_320464_ruink_aoogah.jpg | 13278 | 2025-04-18 12:11:42 |
| - | 249813_413816_ruink_aooga_journal.txt | 1170 | 2025-04-18 12:11:43 |
| - | 251902.json | 27480 | 2025-04-18 12:53:29 |
| - | 251902_323606_ruink_kirby_quiz00.jpg | 442420 | 2025-04-18 12:53:26 |
| - | 251902_323611_ruink_kirby_quiz01.jpg | 511236 | 2025-04-18 12:53:26 |
| - | 251902_323741_ruink_kirby_quiz02.jpg | 508887 | 2025-04-18 12:53:26 |
| - | 251902_327921_ruink_kirby_quiz03.jpg | 513833 | 2025-04-18 12:53:26 |
| - | 251902_330903_ruink_kirby_quiz04.jpg | 519839 | 2025-04-18 12:53:27 |
| - | 251902_331423_ruink_kirby_quiz04-5.jpg | 170399 | 2025-04-18 12:53:27 |
| - | 251902_336173_ruink_kirby_quiz05.jpg | 533019 | 2025-04-18 12:53:28 |
| - | 251902_337314_ruink_kirby_quiz06.jpg | 520338 | 2025-04-18 12:53:28 |
| - | 251902_339037_ruink_kirby_quiz07.jpg | 563079 | 2025-04-18 12:53:29 |
| - | 251902_339109_ruink_kirby_quiz08.jpg | 564653 | 2025-04-18 12:53:29 |
| - | 251902_498490_ruink_kirby_quizthanks.jpg | 173310 | 2025-04-18 12:53:29 |
| - | 251902_856184_ruink_kirby_quizultimo.jpg | 514497 | 2025-04-18 12:53:30 |
| - | 261338.json | 7184 | 2025-04-18 16:18:10 |
| - | 261338_336065_ruink_page19.jpg | 749729 | 2025-04-18 16:18:10 |
| - | 265822.json | 5635 | 2025-04-18 17:56:50 |
| - | 265822_341605_ruink_kirby_quizresults.jpg | 1065827 | 2025-04-18 17:56:50 |
| - | 2672906.json | 5764 | 2025-07-10 17:45:08 |
| - | 2672906_3953967_ruink_smurfpearl.png | 1121827 | 2025-07-10 17:45:08 |
| - | 2672914.json | 6493 | 2025-07-10 17:44:57 |
| - | 2672914_3953978_ruink_smurfdew.png | 259033 | 2025-07-10 17:44:57 |
| - | 2672933.json | 8858 | 2025-07-10 17:44:38 |
| - | 2672933_3954002_ruink_smurfmouse03.png | 353991 | 2025-07-10 17:44:38 |
| - | 2672933_3954003_ruink_smurfmouse02.png | 262702 | 2025-07-10 17:44:38 |
| - | 2672936.json | 8906 | 2025-07-10 17:44:35 |
| - | 2672936_3954006_ruink_smurfbegonia.png | 136930 | 2025-07-10 17:44:35 |
| - | 2672936_3954009_ruink_smurfbegonia02.png | 243669 | 2025-07-10 17:44:35 |
| - | 2672941.json | 6141 | 2025-07-10 17:44:31 |
| - | 2672941_3954013_ruink_smurfmint.png | 341566 | 2025-07-10 17:44:31 |
| - | 2675192.json | 11665 | 2025-07-10 17:06:29 |
| - | 2675192_3957583_ruink_smurflily1.png | 156290 | 2025-07-10 17:06:29 |
| - | 2675192_3957584_ruink_smurflily_back.jpg | 9159 | 2025-07-10 17:06:29 |
| - | 2675192_5479639_ruink_smurflily_2021.png | 670336 | 2025-07-10 17:06:29 |
| - | 2675204.json | 13751 | 2025-07-10 17:06:18 |
| - | 2675204_3957602_ruink_smurfblossom1.png | 437367 | 2025-07-10 17:06:18 |
| - | 2675204_3957603_ruink_smurfblossom_2021.png | 562760 | 2025-07-10 17:06:18 |
| - | 2675212.json | 10367 | 2025-07-10 17:06:11 |
| - | 2675212_3957612_ruink_smurfstorm1.png | 232973 | 2025-07-10 17:06:11 |
| - | 2675212_3957613_ruink_smurfstorm_2021.png | 932421 | 2025-07-10 17:06:11 |
| - | 2675219.json | 6478 | 2025-07-10 17:06:06 |
| - | 2675219_3957620_ruink_smurfmelody1.png | 915000 | 2025-07-10 17:06:06 |
| - | 2675230.json | 10375 | 2025-07-10 17:05:55 |
| - | 2675230_3957649_ruink_smurfwillow_posing.jpg | 17368 | 2025-07-10 17:05:55 |
| - | 2675230_3957654_ruink_smurfwillow_2021.png | 767884 | 2025-07-10 17:05:55 |
| - | 2675982.json | 5066 | 2025-07-10 16:52:58 |
| - | 2675982_3958918_ruink_smurftulip.png | 168496 | 2025-07-10 16:52:58 |
| - | 3214935.json | 5985 | 2025-07-01 22:47:43 |
| - | 3214935_4841756_ruink_miri_jam_k.jpg | 101053 | 2025-07-01 22:47:43 |
| - | 323018.json | 34454 | 2025-04-19 15:08:58 |
| - | 323018_414658_ruink_bw-thndr.rtf | 58738 | 2025-04-19 15:08:58 |
| - | 325207.json | 5405 | 2025-04-19 15:56:18 |
| - | 325207_417510_ruink_shadowbolt_mark.png | 851 | 2025-04-19 15:56:18 |
| - | 329495.json | 6126 | 2025-04-19 17:30:33 |
| - | 329495_423162_ruink_symbols-gndr.jpg | 12429 | 2025-04-19 17:30:33 |
| - | 3319527.json | 7013 | 2025-06-30 11:56:57 |
| - | 3319527_5028322_ruink_smurfmeteorite01.png | 438971 | 2025-06-30 11:56:57 |
| - | 3319527_5052014_ruink_smurfmeteorite00.png | 207411 | 2025-06-30 11:56:57 |
| - | 3319531.json | 5524 | 2025-06-30 11:56:53 |
| - | 3319531_5028327_ruink_smurfbubble.png | 343127 | 2025-06-30 11:56:53 |
| - | 337849.json | 5340 | 2025-04-19 20:30:39 |
| - | 337849_433943_ruink_coma_lingerie.jpg | 75411 | 2025-04-19 20:30:39 |
| - | 3409315.json | 5170 | 2025-06-29 04:27:07 |
| - | 3409315_5184565_ruink_smurffirefly.png | 266340 | 2025-06-29 04:27:07 |
| - | 3549446.json | 5081 | 2025-06-27 02:23:45 |
| - | 3549446_5436585_ruink_smurfsunny_00.png | 138588 | 2025-06-27 02:23:45 |
| - | 355135.json | 5335 | 2025-04-20 02:48:47 |
| - | 355135_456289_ruink_1255471964_aryu_vulvee.jpg | 59084 | 2025-04-20 02:48:47 |
| - | 355139.json | 5784 | 2025-04-20 02:48:52 |
| - | 355139_456304_ruink_1255471768_aryu_vuls_vees.jpg | 76456 | 2025-04-20 02:48:52 |
| - | 355144.json | 8475 | 2025-04-20 02:48:58 |
| - | 355144_456307_ruink_1243535662_aryu_vul_love.jpg | 82150 | 2025-04-20 02:48:58 |
| - | 526433.json | 5117 | 2025-04-13 14:16:19 |
| - | 526433_687569_ruink_the_signat-u.png | 23174 | 2025-04-13 14:16:19 |
| - | 534386.json | 8596 | 2025-04-13 17:08:27 |
| - | 534386_699210_ruink_kirby_pink_drink.jpg | 62668 | 2025-04-13 17:08:27 |
| - | 534386_699211_ruink_starfy_wine.jpg | 94030 | 2025-04-13 17:08:27 |
| - | 574946.json | 4375 | 2025-04-14 07:55:41 |
| - | 574946_754836_ruink_head.png | 13823 | 2025-04-14 07:55:41 |
| - | 63595.json | 4988 | 2025-04-15 17:11:29 |
| - | 63595_82659_ruink_signat.png | 43023 | 2025-04-15 17:11:29 |
| - | 666373.json | 4934 | 2025-04-24 20:17:52 |
| - | 666373_881097_ruink_projectx_-_0009.png | 17978 | 2025-04-24 20:17:52 |
| - | 710537.json | 7642 | 2025-04-25 12:42:50 |
| - | 710537_950268_ruink_page20.jpg | 688075 | 2025-04-25 12:42:50 |
| - | 775950.json | 6492 | 2025-04-26 13:07:52 |
| - | 775950_1048905_ruink_eeveechain.jpg | 47291 | 2025-04-26 13:07:52 |
| - | 82101.json | 5520 | 2025-04-16 00:10:59 |
| - | 82101_107519_ruink_black_evil_television.jpg | 99077 | 2025-04-16 00:10:59 |
| - | 84261.json | 5447 | 2025-04-16 00:56:26 |
| - | 84261_110337_ruink_kitty_guide.jpg | 112687 | 2025-04-16 00:56:26 |
| - | 844302.json | 7034 | 2025-04-27 14:43:41 |
| - | 844302_1147316_ruink_pantyglyph.jpg | 55670 | 2025-04-27 14:43:41 |
| - | 844867.json | 5677 | 2025-04-27 14:56:45 |
| - | 844867_1148042_ruink_samp.jpg | 71360 | 2025-04-27 14:56:45 |
| - | 861412.json | 5165 | 2025-04-27 21:28:19 |
| - | 861412_1171219_ruink_splatoon-shimi.jpg | 76070 | 2025-04-27 21:28:19 |
| - | 871666.json | 7999 | 2025-04-28 01:22:58 |
| - | 871666_1185691_ruink_updat_trainercard.png | 22799 | 2025-04-28 01:22:58 |
| - | 88981.json | 18638 | 2025-04-16 02:33:54 |
| - | 88981_116223_ruink_kirjig00.jpg | 121520 | 2025-04-16 02:33:54 |
| - | 88981_116226_ruink_kirjig01.jpg | 80465 | 2025-04-16 02:33:54 |
| - | 88981_116228_ruink_kirjig02.jpg | 86099 | 2025-04-16 02:33:54 |
| - | 88981_116229_ruink_kirjig03.jpg | 87503 | 2025-04-16 02:33:54 |
| - | 88981_116231_ruink_kirjig04.jpg | 73779 | 2025-04-16 02:33:55 |
| - | 88981_116233_ruink_kirjig05.jpg | 105920 | 2025-04-16 02:33:55 |
| - | 88981_116236_ruink_kirjig06.jpg | 78538 | 2025-04-16 02:33:55 |
| - | 894758.json | 4644 | 2025-04-28 09:54:24 |
| - | 894758_1219322_ruink_sktch_delcatty.jpg | 62435 | 2025-04-28 09:54:24 |
| - | 909572.json | 16401 | 2025-04-28 15:36:08 |
| - | 909572_1240572_ruink_samp1.jpg | 91561 | 2025-04-28 15:36:09 |
| - | 909572_1240576_ruink_samp2.jpg | 98712 | 2025-04-28 15:36:09 |
| - | 909572_1240580_ruink_samp3.jpg | 108958 | 2025-04-28 15:36:09 |
| - | 909572_1240584_ruink_samp4.jpg | 81206 | 2025-04-28 15:36:09 |